Dewpoint
64 65 64 64 64 64 63 62 59 57 56 55 56 57 57 57 57 57 56 57 57 57 56 57 56 58 57 56 55 53 52 50 46 49 53 50 50 49 53 55 55 54 55
64 64 64 63 62 61 60 59 57 56 56 55 56 57 57 57 56 56 57 56 55 54 55 56 55 57 57 58 57 55 53 51 50 48 47 48 49 49 53 53 53 54 54
64 63 62 61 60 60 61 60 60 57 56 56 57 56 55 55 55 55 55 54 53 52 53 55 56 57 55 55 56 56 55 53 51 49 47 49 48 51 51 52 52 53 54
62 61 61 60 60 60 60 59 58 56 56 55 55 54 54 54 55 53 51 52 53 54 55 56 57 57 55 55 56 56 55 53 51 49 49 47 47 49 51 51 50 52 53
62 61 61 60 60 60 59 58 57 56 55 54 54 54 54 53 53 53 53 53 53 53 55 56 57 57 60 61 59 57 54 53 52 50 49 48 47 47 46 48 51 51 52
60 60 61 60 60 58 57 57 56 55 54 54 53 53 52 53 57 59 57 53 53 53 54 54 53 56 55 59 61 61 60 55 52 51 50 48 48 47 48 49 50 50 47
61 61 60 59 58 57 56 55 53 53 53 53 53 53 54 55 58 59 60 58 55 54 54 53 53 55 58 57 58 60 60 60 60 54 52 51 50 49 48 48 50 50 48
60 59 59 58 57 57 55 54 53 53 53 54 55 55 55 56 58 58 59 58 57 55 54 53 54 54 56 57 57 56 57 57 57 57 57 55 53 52 49 49 49 49 49
59 58 58 58 57 56 55 54 53 54 54 55 55 55 55 56 57 57 57 56 56 55 55 55 55 56 57 58 57 56 55 55 56 58 58 58 57 57 56 51 51 48 48
59 59 59 58 57 56 56 55 55 55 56 55 54 55 56 55 55 55 55 56 55 55 55 55 58 58 57 56 55 54 52 52 52 53 53 54 56 56 57 55 53 49 47
59 59 58 58 57 57 57 56 55 55 55 54 54 53 54 55 55 54 54 55 55 55 55 55 55 56 55 53 53 53 52 53 54 54 54 54 53 53 53 52 53 52 49
58 58 58 57 57 56 55 55 55 55 54 53 53 53 55 55 55 54 54 54 56 56 55 55 55 54 52 52 52 53 52 53 53 53 53 52 52 52 52 52 50 50 49
56 56 56 56 56 55 55 54 54 54 54 53 53 54 54 54 54 54 53 53 54 55 56 56 55 53 51 52 53 53 53 53 53 51 51 51 51 51 51 50 49 49 48
54 54 55 55 55 56 56 55 55 55 54 54 54 54 54 54 54 54 53 53 53 55 56 56 56 55 54 55 54 54 53 53 52 52 52 52 52 51 51 51 51 51 51
54 54 54 55 55 55 56 56 56 56 55 54 54 54 53 53 52 49 50 50 49 51 52 51 50 48 48 48 50 51 51 52 52 52 52 52 52 53 53 53 53 53 52
54 55 55 56 56 55 53 51 52 53 51 49 48 50 54 50 48 45 44 44 44 47 47 45 45 46 47 49 50 50 53 55 53 53 52 51 52 51 53 53 54 53 51
55 55 56 55 55 53 52 51 50 49 48 46 45 45 45 48 46 44 43 42 42 44 46 46 48 49 50 52 51 53 55 55 53 52 52 52 53 53 53 52 51 51 50
58 53 55 56 55 54 53 51 50 49 49 51 48 46 44 42 42 41 41 42 45 45 46 48 50 51 52 53 54 54 53 52 52 51 51 51 54 53 52 51 49 48 48
58 57 56 56 55 54 53 52 52 52 52 52 52 49 47 42 42 41 41 48 50 51 51 51 51 52 53 53 52 51 51 51 50 50 51 52 53 52 50 47 46 45 46
60 57 56 56 55 55 54 53 53 53 53 52 52 51 52 50 52 52 49 49 50 51 52 52 53 52 52 51 51 50 51 50 51 52 52 50 46 43 42 41 41 41 41
57 57 57 57 55 55 54 53 53 52 51 51 52 53 50 54 53 53 53 52 53 53 53 53 52 50 50 50 49 50 50 49 49 50 48 44 41 37 37 37 38 39 39
58 57 57 55 55 52 51 52 51 52 53 53 53 53 48 52 53 53 53 53 55 54 54 52 50 49 49 49 49 49 48 48 48 46 42 37 36 36 35 35 35 36 36
55 54 53 52 51 50 49 49 52 54 54 55 54 54 54 54 53 54 54 54 54 53 51 50 49 48 48 49 49 49 48 48 46 43 38 37 36 35 36 35 35 35 36
54 53 51 51 49 50 50 52 55 52 55 54 54 55 54 54 53 52 53 53 51 50 49 49 47 45 46 46 48 48 44 44 41 37 38 39 39 40 39 37 36 36 37
53 52 52 51 50 51 54 54 55 55 55 55 54 54 53 50 50 49 48 47 48 47 44 44 44 44 45 45 44 42 35 33 36 36 36 38 40 39 37 36 35 36 36
53 53 52 51 52 52 54 55 54 54 54 55 53 51 49 48 47 46 46 46 44 43 43 42 43 43 44 42 39 35 31 31 33 33 36 36 36 35 36 35 35 35 35
Lifted_Index
-2 -2 -2 -2 -2 -1 0 0 0 0 0 1 0 -0 -0 -1 -1 -1 -0 0 1 3 5 5 5 4 4 4 5 5 6 7 8 9 9 9 10 10 9 9 9 9 9
-2 -2 -2 -2 -1 -0 1 1 1 1 1 1 0 0 0 -0 -0 0 1 2 3 4 5 5 4 4 4 4 4 4 5 6 7 7 8 8 9 9 9 9 9 9 9
-2 -2 -1 -1 1 1 2 2 2 1 1 1 1 2 2 2 2 2 4 4 5 6 6 5 4 4 4 4 4 4 4 4 5 6 6 7 7 8 9 9 9 9 9
-1 -1 -0 1 2 2 2 2 1 2 2 3 4 5 6 6 6 5 6 6 6 6 5 4 4 3 4 4 3 3 3 4 4 4 5 5 5 6 7 8 8 8 8
-0 -0 1 1 2 2 2 2 2 3 5 5 6 7 7 7 7 6 6 6 5 5 4 4 4 4 4 3 3 3 3 3 4 4 4 4 5 5 5 6 7 8 8
-0 0 1 1 2 2 2 3 4 5 6 6 7 7 6 6 5 5 5 4 4 4 4 3 4 4 4 3 3 2 3 3 3 3 4 4 4 4 4 5 5 6 7
0 0 1 2 2 3 4 5 6 6 5 5 5 5 4 4 3 3 3 3 3 3 3 3 3 3 3 3 2 2 2 2 3 3 3 3 3 3 4 3 4 4 5
1 1 2 2 3 4 5 6 5 5 4 4 3 3 3 3 3 3 2 2 2 2 2 2 2 2 2 2 2 2 2 2 2 2 2 2 2 3 3 3 3 4 4
1 2 2 2 3 4 4 4 4 3 3 3 3 3 3 3 3 2 2 2 2 2 2 2 2 2 2 2 2 2 2 3 3 3 2 2 2 3 3 3 4 4 4
1 1 2 2 3 3 3 3 3 2 2 2 3 3 3 3 3 3 2 2 2 2 2 2 2 2 2 2 2 2 3 3 3 3 3 3 3 3 3 3 4 4 4
1 1 1 2 2 2 2 2 2 2 2 2 3 3 3 3 2 2 2 2 2 2 1 1 1 2 2 2 2 3 3 3 3 3 3 3 3 3 3 3 3 4 4
1 1 1 2 2 2 2 2 2 2 2 2 2 3 2 2 2 2 2 2 2 2 2 1 1 2 2 2 2 2 3 3 3 3 3 3 3 3 3 3 3 3 3
2 2 2 2 2 2 2 2 2 2 2 2 2 2 2 2 2 2 2 2 2 2 2 2 2 2 2 2 2 3 3 3 3 3 3 3 3 2 2 3 3 3 3
3 2 2 2 2 2 2 2 2 1 1 1 2 2 2 2 2 2 2 3 3 3 3 3 2 2 2 2 2 2 3 3 3 3 3 3 3 2 3 3 3 3 3
2 2 2 2 1 1 1 1 1 1 1 1 2 2 2 2 2 2 2 2 3 3 2 2 2 2 2 2 2 2 2 2 3 3 3 3 3 3 3 4 4 4 4
1 1 1 1 1 0 0 1 2 2 2 2 2 1 1 2 2 2 2 2 2 2 2 2 2 2 2 2 2 2 2 3 3 3 3 3 3 4 4 4 4 4 4
-0 -0 0 0 0 0 0 1 2 3 3 2 2 1 1 2 2 2 2 2 2 2 2 2 1 2 2 2 2 3 3 3 3 3 3 4 4 4 4 4 4 5 5
-1 -1 -0 -0 -0 -0 0 1 2 2 2 2 1 1 1 2 2 1 1 1 1 1 2 2 2 2 2 3 3 4 4 4 4 4 4 4 4 4 4 5 5 6 6
-1 -1 -1 -0 -0 -0 0 1 1 1 1 1 1 1 1 1 1 1 1 1 2 2 2 2 2 3 4 4 5 5 5 5 4 4 4 4 4 5 6 7 8 8 8
-1 -1 -1 -1 -1 -1 -0 0 0 1 1 1 0 1 1 1 1 1 1 2 2 2 2 3 4 5 5 6 6 6 6 5 5 5 5 5 6 7 8 9 10 10 10
-2 -2 -2 -2 -1 -1 -1 -0 0 0 0 0 0 0 0 0 0 1 2 2 2 2 3 4 5 6 7 7 7 7 6 6 6 5 5 6 7 8 9 10 10 9 9
-2 -2 -2 -2 -2 -1 -1 -0 0 0 -0 -0 0 0 0 0 1 2 2 3 3 3 4 6 7 8 8 8 7 7 7 7 6 6 6 6 7 8 9 8 8 8 8
-3 -3 -3 -2 -2 -1 -1 -1 -0 -0 -0 -0 -0 0 1 1 1 2 3 3 3 4 6 7 8 9 9 8 8 8 8 7 7 6 6 7 7 8 8 8 8 7 7
-2 -2 -2 -2 -1 -1 -1 -1 -0 -0 -0 -0 0 1 1 1 2 2 3 4 5 6 7 8 9 9 9 9 9 9 8 8 7 7 7 7 8 8 8 8 8 8 8
-1 -1 -1 -1 -1 -1 -1 -0 -0 -0 -0 0 1 1 1 1 2 3 5 6 7 8 8 9 9 10 10 10 10 10 9 9 8 8 8 8 8 8 8 8 8 8 8
-0 -0 -1 -1 -1 -1 -0 -0 -0 0 -0 0 1 1 1 1 2 4 5 7 8 8 9 9 9 10 10 10 10 10 10 9 9 8 8 8 8 9 9 9 9 9 8